Location: Cheching
(60.0667°N, 164.2167°W)
Time: 00:59:32
(UTC+00:00)

DX 1 - Pass Details

Date: 31 January 2021
Orbit: 618 x 631 km, 98.5° (Epoch: 07 March)

Event Time Altitude Azimuth Distance (km) Brightness Sun altitude
Exits shadow 07:09:40 38° 259° (W) 961 ? -29.6°
Drops below altitude 10° 07:12:44 10° 226° (SW) 1,988 ? -30.0°
Sets 07:14:59 0° 220° (SW) 2,890 ? -30.3°
